Regional Weather Roundup
Issued by NWS

Home | Current Version | Previous Version | Text Only | Print | Product List | Glossary Off
Versions: 1 2 3 4 5 6 7 8 9 10 11 12 13 14 15 16 17 18 19 20 21 22 23 24 25 26 27 28 29 30 31 32 33 34 35 36 37 38 39 40 41 42 43 44 45 46 47 48 49 50

000
ASUS45 KTFX 311510
RWRMT
MONTANA REGIONAL WEATHER ROUNDUP
NATIONAL WEATHER SERVICE GREAT FALLS MT
900 AM MDT FRI JUL 31 2015

NOTE: "FAIR" INDICATES FEW OR NO CLOUDS BELOW 12000 FEET WITH NO
SIGNIFICANT WEATHER AND/OR OBSTRUCTIONS TO VISIBILITY.

MTZ001>007-043-311600-
WEST OF THE DIVIDE

CITY           SKY/WX    TMP DP  RH WIND       PRES   REMARKS
KALISPELL      SUNNY     68  42  38 NE8       30.21S
MISSOULA       CLOUDY    60  42  51 CALM      30.28S
BUTTE          SUNNY     58  40  51 CALM      30.38S
MULLAN PASS    SUNNY     69  33  26 S3        30.37R
DEER LODGE       N/A     61  45  55 CALM      30.37S
EUREKA           N/A     66  39  37 CALM      30.21F
HAMILTON         N/A     64  45  48 S1        30.28S
LIBBY            N/A     64  39  39 CALM      30.20F
RONAN            N/A     70  44  38 CALM      30.24S
$$

MTZ008-052>055-311600-
SOUTHWEST MONTANA

CITY           SKY/WX    TMP DP  RH WIND       PRES   REMARKS
BOZEMAN        SUNNY     66  50  56 NE5       30.31S
DILLON         SUNNY     61  46  57 SW9       30.35S
W YELLOWSTONE  SUNNY     52  39  62 CALM      30.47S
THREE FORKS      N/A     64  43  46 CALM      30.27R
TWIN BRIDGES     N/A     62  45  53 S6        30.29S
$$

MTZ009-010-012-014-046-048-049-054-311600-
EAST SLOPES AND CENTRAL MONTANA

CITY           SKY/WX    TMP DP  RH WIND       PRES   REMARKS
CUT BANK       SUNNY     72  41  32 NW6       30.21S
GREAT FALLS    MOSUNNY   71  42  35 SW12      30.21S
MALMSTROM AFB  SUNNY     69  44  40 SW8       30.21S
HELENA         SUNNY     63  43  48 CALM      30.28R
$$

MTZ011-013-016-021-045-047-050-051-311600-
NORTH CENTRAL MONTANA

CITY           SKY/WX    TMP DP  RH WIND       PRES   REMARKS
HAVRE          SUNNY     66  51  58 CALM      30.15S
LEWISTOWN      SUNNY     73  47  39 CALM      30.23S
CHINOOK          N/A     70  55  60 CALM      30.14S
$$

MTZ017>020-022>027-061-062-311600-
NORTHEAST MONTANA

CITY           SKY/WX    TMP DP  RH WIND       PRES   REMARKS
GLASGOW        SUNNY     73  51  46 SE7       30.16F
JORDAN           N/A     74  45  35 CALM      30.17S
SIDNEY         SUNNY    N/A N/A N/A S6        30.16F
WOLF POINT     SUNNY     69  52  54 CALM      30.17F
MALTA            N/A     69  55  60 NE3       30.11S
PLENTYWOOD       N/A     70  54  56 N7        30.18S
POPLAR           N/A     70  52  52 SW3       30.18S
$$

MTZ028>42-056>058-311600-
SOUTHCENTRAL AND SOUTHEAST MONTANA

CITY           SKY/WX    TMP DP  RH WIND       PRES   REMARKS
BAKER          SUNNY     82  43  25 S3        30.23S
BILLINGS       MOSUNNY   65  46  50 SW8       30.25R
LIVINGSTON     SUNNY     65  44  46 W5        30.30F
MILES CITY     SUNNY     72  49  44 SE7       30.18F
FORSYTH          N/A     82  43  24 SE6       30.17F
LAUREL           N/A     67  45  45 S3        30.21S
ROUNDUP          N/A     66  43  43 S6        30.12S
$$

REGIONAL REPORTS...DAKOTAS

CITY           SKY/WX    TMP DP  RH WIND       PRES   REMARKS
WILLISTON      SUNNY     71  53  52 NE8       30.17R
MINOT          SUNNY     72  50  45 W7        30.13F
DICKINSON      SUNNY     78  52  40 W9        30.18S
BEACH          FAIR      77  48  36 SW8       30.21F
CROSBY         FAIR      68  55  64 N6        30.18R
BISMARCK       SUNNY     73  54  51 SW3       30.16F
GRAND FORKS    MOSUNNY   73  54  51 NW14      30.06S
FARGO          SUNNY     73  56  54 W12       30.10S
BUFFALO SD       N/A     74  50  42 CALM      30.18S
RAPID CITY     SUNNY     72  53  51 N8        30.24R
$$

REGIONAL REPORTS...WYOMING/IDAHO/WASHINGTON

CITY           SKY/WX    TMP DP  RH WIND       PRES   REMARKS
GILLETTE       SUNNY     78  47  33 SE8       30.28S
SHERIDAN       SUNNY     70  44  39 CALM      30.26S
BUFFALO WY     SUNNY     76  41  28 E3        30.32S
CODY           SUNNY     73  39  29 SW5       30.33S
YELLOWSTONE LA   N/A     55  45  68 E5        30.55R
IDAHO FALLS    SUNNY     61  47  59 N7        30.32S
SALMON         SUNNY     59  45  58 CALM      30.32S
BOISE          SUNNY     72  40  31 SE5       30.19R
SPOKANE        MOSUNNY   71  45  39 NE3       30.14R
$$

REGIONAL REPORTS...ALBERTA

CITY           SKY/WX    TMP DP  RH WIND       PRES   REMARKS
EDMONTON       SUNNY     66  48  52 S8        30.10F
CALGARY        MOSUNNY   63  45  51 SW6       30.17F
LETHBRIDGE     MOSUNNY   61  46  59 SW12      30.18S
MEDICINE HAT   SUNNY     66  48  52 VRB2      30.13S
WATERTON GATE    N/A     70  43  37 S9          N/A
CARDSTON         N/A     68  41  37 SE1         N/A
$$

REGIONAL REPORTS...SASKATCHEWAN

CITY           SKY/WX    TMP DP  RH WIND       PRES   REMARKS
SWIFT CURRENT  SUNNY     68  52  56 S9        30.18S
SASKATOON      MOSUNNY   63  52  67 W3        30.16F
CYPRESS HILLS    N/A     68  46  45 SE7         N/A
VAL MARIE        N/A     70  54  56 E7          N/A
ROCKGLEN         N/A     66  54  63 N5          N/A
ASSINIBOIA       N/A     64  55  72 S3          N/A
$$


USA.gov is the U.S. government's official web portal to all federal, state and local government web resources and services.